�N����,����,�~����,�C��,���x,�C��,����,���ϕ���,�ő�u�ԕ���,�ő厞����,���˗�,�I�_���x,�n�����x,�ő啗���N��,DTYPE
"20/02/07","00:10",0.0,0.1,86.5,1023.9,302.5,2.2,4.1,325.0,0.00,-1.8,5.3,"00:04:24",1
"20/02/07","00:20",0.0,0.2,86.4,1023.9,319.3,2.7,3.9,311.5,0.00,-1.8,5.2,"00:16:40",1
"20/02/07","00:30",0.0,0.2,86.2,1023.7,312.9,2.5,5.1,323.4,0.00,-1.8,5.2,"00:22:32",1
"20/02/07","00:40",0.0,0.2,86.1,1023.9,306.3,1.5,2.9,335.8,0.00,-1.8,5.2,"00:30:16",1
"20/02/07","00:50",0.0,0.2,85.9,1023.9,310.0,2.1,6.3,338.4,0.00,-1.8,5.1,"00:47:04",1
"20/02/07","01:00",0.0,0.2,85.8,1023.9,300.3,2.1,4.0,326.8,0.00,-1.9,5.3,"00:51:28",1
"20/02/07","01:10",0.0,0.2,85.6,1023.9,314.2,2.3,4.3,325.9,0.00,-1.9,5.2,"01:08:40",1
"20/02/07","01:20",0.0,0.2,85.5,1023.9,298.8,1.0,2.4,316.3,0.00,-1.9,5.2,"01:10:08",1
"20/02/07","01:30",0.0,0.2,85.4,1023.9,300.0,1.6,2.6,317.8,0.00,-1.9,5.2,"01:29:36",1
"20/02/07","01:40",0.0,0.2,85.3,1023.7,288.0,1.6,2.6,313.5,0.00,-1.9,5.2,"01:30:16",1
"20/02/07","01:50",0.0,0.2,85.3,1023.4,309.3,2.0,2.6,319.8,0.00,-1.9,5.2,"01:46:24",1
"20/02/07","02:00",0.0,0.1,85.4,1023.4,310.4,2.0,2.4,325.6,0.00,-2.0,5.1,"01:50:24",1
"20/02/07","02:10",0.0,0.1,85.7,1023.4,308.1,2.2,3.1,320.6,0.00,-2.0,5.1,"02:08:00",1
"20/02/07","02:20",0.0,0.2,85.9,1023.4,322.1,2.6,3.4,331.8,0.00,-1.8,5.3,"02:15:12",1
"20/02/07","02:30",0.0,0.1,86.1,1023.2,313.0,2.3,3.3,322.0,0.00,-1.9,5.1,"02:25:36",1
"20/02/07","02:40",0.0,0.1,86.2,1023.4,321.9,1.6,2.2,340.3,0.00,-1.9,5.2,"02:38:16",1
"20/02/07","02:50",0.0,0.0,86.4,1023.4,328.5,1.7,2.8,322.6,0.00,-2.0,5.2,"02:48:16",1
"20/02/07","03:00",0.0,-0.3,86.8,1022.7,310.8,2.0,3.2,317.2,0.00,-2.2,5.2,"02:50:56",1
"20/02/07","03:10",0.0,-0.2,87.2,1023.2,320.6,2.6,3.7,333.2,0.00,-2.0,4.9,"03:07:52",1
"20/02/07","03:20",0.0,-0.1,87.3,1023.4,324.7,2.6,3.5,323.4,0.00,-1.9,5.1,"03:15:36",1
"20/02/07","03:30",0.0,0.0,87.3,1023.0,321.4,2.5,3.6,322.0,0.00,-1.8,5.0,"03:20:48",1
"20/02/07","03:40",0.0,0.1,87.2,1023.2,322.6,2.3,3.5,332.7,0.00,-1.7,4.9,"03:35:52",1
"20/02/07","03:50",0.0,0.1,87.1,1023.2,315.3,1.7,2.9,337.8,0.00,-1.7,5.1,"03:45:28",1
"20/02/07","04:00",0.0,0.1,87.0,1023.0,292.3,1.8,2.9,318.3,0.00,-1.8,4.9,"03:52:56",1
"20/02/07","04:10",0.0,0.1,87.0,1023.2,310.8,2.5,3.7,324.2,0.00,-1.8,5.0,"04:06:32",1
"20/02/07","04:20",0.0,0.2,86.9,1023.0,314.6,2.3,3.2,320.8,0.00,-1.7,4.8,"04:10:56",1
"20/02/07","04:30",0.0,0.1,86.8,1023.4,323.3,2.6,3.5,328.1,0.00,-1.8,4.9,"04:26:08",1
"20/02/07","04:40",0.0,0.1,86.6,1023.2,314.1,2.6,3.3,308.9,0.00,-1.8,5.0,"04:34:08",1
"20/02/07","04:50",0.0,0.0,86.4,1023.4,309.7,1.8,2.5,331.9,0.00,-2.0,4.8,"04:40:56",1
"20/02/07","05:00",0.0,-0.1,86.2,1023.4,322.3,2.2,2.9,316.0,0.00,-2.1,4.9,"04:51:36",1
"20/02/07","05:10",0.0,-0.3,86.2,1023.2,329.9,2.2,2.9,341.3,0.00,-2.3,4.9,"05:03:12",1
"20/02/07","05:20",0.0,-0.5,86.4,1023.2,324.9,2.2,3.1,329.4,0.00,-2.4,5.0,"05:15:12",1
"20/02/07","05:30",0.0,-0.7,86.5,1023.2,295.3,1.2,1.9,316.1,0.00,-2.6,4.8,"05:20:08",1
"20/02/07","05:40",0.0,-1.1,86.8,1023.2,293.7,0.8,1.2,323.4,0.00,-3.0,4.9,"05:33:20",1
"20/02/07","05:50",0.0,-1.2,87.0,1023.0,300.7,1.0,1.8,306.5,0.00,-3.0,4.7,"05:41:52",1
"20/02/07","06:00",0.0,-1.4,87.2,1022.7,303.5,1.2,1.8,309.2,0.00,-3.2,4.7,"05:54:24",1
"20/02/07","06:10",0.0,-1.6,87.5,1022.7,317.8,1.3,1.8,326.6,0.00,-3.4,4.4,"06:07:44",1
"20/02/07","06:20",0.0,-1.6,87.9,1022.7,322.0,1.7,2.1,342.7,0.00,-3.3,4.5,"06:18:40",1
"20/02/07","06:30",0.0,-1.6,88.2,1022.7,332.8,1.6,2.4,339.5,0.00,-3.3,4.7,"06:28:08",1
"20/02/07","06:40",0.0,-1.8,88.5,1022.7,323.1,1.2,2.0,338.0,0.00,-3.4,4.4,"06:32:24",1
"20/02/07","06:50",0.0,-2.1,89.0,1022.5,307.0,1.6,2.5,316.5,0.00,-3.6,4.3,"06:49:28",1
"20/02/07","07:00",0.0,-1.9,89.2,1022.5,301.2,1.7,2.5,323.6,0.00,-3.4,4.4,"06:58:00",1
"20/02/07","07:10",0.0,-1.9,89.5,1022.7,310.6,1.7,2.2,327.3,0.00,-3.4,4.3,"07:04:24",1
"20/02/07","07:20",0.0,-1.9,89.8,1022.5,313.5,1.7,2.5,324.0,0.00,-3.3,4.4,"07:13:44",1
"20/02/07","07:30",0.0,-2.1,90.1,1022.3,317.5,1.7,2.2,316.6,0.00,-3.5,4.3,"07:22:40",1
"20/02/07","07:40",0.0,-2.2,90.4,1022.5,312.9,1.8,2.4,317.2,0.00,-3.5,4.2,"07:38:08",1
"20/02/07","07:50",0.0,-2.2,90.6,1022.5,310.4,1.8,2.1,327.2,0.00,-3.5,4.2,"07:44:56",1
"20/02/07","08:00",0.0,-2.1,90.9,1022.5,324.6,2.1,2.5,325.0,0.00,-3.3,4.0,"07:53:28",1
"20/02/07","08:10",0.0,-2.1,91.1,1022.5,316.9,1.5,2.2,339.2,0.00,-3.3,4.2,"08:00:16",1
"20/02/07","08:20",0.0,-2.2,91.4,1022.7,306.6,1.1,1.6,317.2,0.01,-3.4,4.1,"08:10:08",1
"20/02/07","08:30",0.0,-1.8,91.7,1022.5,313.0,1.2,1.6,329.4,0.02,-2.9,4.1,"08:28:00",1
"20/02/07","08:40",0.0,-1.2,91.8,1022.7,313.4,1.1,1.7,319.5,0.03,-2.3,4.1,"08:34:56",1
"20/02/07","08:50",0.0,-0.7,91.8,1023.2,288.6,1.5,3.1,313.9,0.05,-1.8,4.1,"08:49:20",1
"20/02/07","09:00",0.0,-0.3,91.9,1023.2,300.2,1.3,2.5,306.7,0.05,-1.4,4.2,"08:51:28",1
"20/02/07","09:10",0.0,0.1,92.0,1023.0,266.5,1.0,1.9,302.8,0.07,-1.0,4.2,"09:09:36",1
"20/02/07","09:20",0.0,0.3,91.9,1023.0,270.8,1.7,2.5,244.3,0.09,-0.8,4.2,"09:15:44",1
"20/02/07","09:30",0.0,0.6,92.0,1023.2,276.2,1.5,2.4,265.9,0.09,-0.5,4.2,"09:22:56",1
"20/02/07","09:40",0.0,1.1,91.9,1023.0,309.0,1.3,2.5,342.0,0.12,0.0,4.2,"09:36:40",1
"20/02/07","09:50",0.0,1.4,91.5,1023.2,313.3,1.1,2.0,341.1,0.13,0.2,4.4,"09:40:56",1
"20/02/07","10:00",0.0,1.7,91.2,1023.4,249.7,0.5,1.4,321.2,0.17,0.5,4.5,"09:51:28",1
"20/02/07","10:10",0.0,2.2,90.7,1023.7,253.2,0.7,1.6,309.0,0.22,0.9,4.7,"10:08:42",1
"20/02/07","10:20",0.0,2.4,89.1,1024.1,287.9,0.6,0.9,279.0,0.22,0.8,4.8,"10:10:46",1
"20/02/07","10:30",0.0,2.7,87.3,1024.1,287.1,0.7,1.0,291.4,0.23,0.8,4.9,"10:23:24",1
"20/02/07","10:40",0.0,3.5,85.9,1023.9,285.9,0.8,1.4,288.2,0.31,1.4,5.2,"10:38:44",1
"20/02/07","10:50",0.0,3.8,83.0,1024.4,242.7,1.1,2.1,318.2,0.31,1.2,5.5,"10:40:42",1
"20/02/07","11:00",0.0,3.8,79.2,1024.6,255.3,0.8,1.9,214.5,0.27,0.6,5.6,"10:50:24",1
"20/02/07","11:10",0.0,4.0,75.4,1024.1,193.2,1.1,2.1,194.2,0.27,0.1,5.8,"11:08:14",1
"20/02/07","11:20",0.0,4.2,73.2,1023.9,148.6,1.1,2.9,131.9,0.29,-0.1,6.1,"11:17:48",1
"20/02/07","11:30",0.0,4.4,71.5,1024.1,201.3,1.1,2.5,209.0,0.30,-0.3,6.2,"11:25:18",1
"20/02/07","11:40",0.0,4.8,70.4,1023.4,178.7,1.3,2.8,139.8,0.35,-0.1,6.3,"11:37:50",1
"20/02/07","11:50",0.0,5.2,69.5,1023.4,181.7,1.5,2.8,110.8,0.45,0.1,6.6,"11:49:26",1
"20/02/07","12:00",0.0,5.1,67.7,1023.2,125.5,1.5,3.6,124.0,0.38,-0.3,6.8,"11:57:52",1
"20/02/07","12:10",0.0,5.1,66.3,1023.2,189.2,1.7,3.9,205.3,0.34,-0.6,7.0,"12:08:52",1
"20/02/07","12:20",0.0,5.5,65.1,1022.5,185.8,1.3,3.1,121.5,0.29,-0.5,7.0,"12:18:48",1
"20/02/07","12:30",0.0,5.9,64.5,1022.3,174.6,1.6,3.2,121.2,0.39,-0.2,7.4,"12:27:38",1
"20/02/07","12:40",0.0,6.2,62.1,1022.0,150.4,1.7,3.7,187.4,0.47,-0.5,7.5,"12:39:12",1
"20/02/07","12:50",0.0,6.7,60.8,1021.8,218.0,1.5,3.7,192.4,0.45,-0.3,7.8,"12:40:48",1
"20/02/07","13:00",0.0,6.7,59.4,1021.8,224.9,1.7,3.6,210.7,0.47,-0.6,8.0,"12:53:20",1
"20/02/07","13:10",0.0,6.8,58.9,1021.5,227.2,1.6,3.2,214.2,0.39,-0.6,8.1,"13:00:40",1
"20/02/07","13:20",0.0,6.7,57.2,1021.5,158.0,1.3,3.3,163.7,0.39,-1.1,8.3,"13:19:12",1
"20/02/07","13:30",0.0,7.1,56.9,1021.3,191.7,1.6,3.6,177.0,0.44,-0.8,8.4,"13:20:24",1
"20/02/07","13:40",0.0,6.9,56.2,1021.1,188.1,2.2,4.7,236.2,0.42,-1.2,8.6,"13:38:08",1
"20/02/07","13:50",0.0,7.3,55.3,1020.8,199.0,1.8,4.4,131.7,0.43,-1.0,8.8,"13:46:24",1
"20/02/07","14:00",0.0,6.8,53.9,1020.6,146.8,1.8,4.0,119.1,0.39,-1.8,8.7,"13:56:08",1
"20/02/07","14:10",0.0,7.2,54.1,1019.9,176.6,1.8,4.3,232.9,0.37,-1.4,9.2,"14:04:32",1
"20/02/07","14:20",0.0,7.1,53.6,1020.1,224.1,1.7,4.2,250.0,0.33,-1.6,9.0,"14:13:04",1
"20/02/07","14:30",0.0,7.0,53.7,1019.9,162.4,2.0,4.2,134.6,0.28,-1.7,9.2,"14:23:12",1
"20/02/07","14:40",0.0,7.2,53.8,1019.4,189.5,1.5,3.3,214.7,0.26,-1.5,9.3,"14:34:32",1
"20/02/07","14:50",0.0,7.2,52.9,1019.7,198.4,1.5,3.4,190.3,0.24,-1.7,9.2,"14:40:08",1
"20/02/07","15:00",0.0,7.0,53.3,1019.4,193.9,1.6,3.5,199.1,0.21,-1.8,9.2,"14:52:08",1
"20/02/07","15:10",0.0,7.4,53.1,1019.4,196.4,1.5,3.5,206.3,0.23,-1.5,9.4,"15:08:48",1
"20/02/07","15:20",0.0,7.5,52.5,1019.2,222.3,1.6,4.1,240.1,0.23,-1.5,9.4,"15:15:28",1
"20/02/07","15:30",0.0,7.8,51.5,1019.4,218.6,1.6,3.7,242.1,0.26,-1.5,9.6,"15:29:54",1
"20/02/07","15:40",0.0,7.4,51.1,1019.4,220.5,2.2,4.1,229.9,0.20,-2.0,9.2,"15:31:44",1
"20/02/07","15:50",0.0,7.5,51.2,1019.7,215.4,2.5,4.3,233.2,0.24,-1.9,9.5,"15:47:28",1
"20/02/07","16:00",0.0,7.6,50.9,1019.0,199.4,2.1,4.3,236.7,0.20,-1.9,9.3,"15:50:24",1
"20/02/07","16:10",0.0,7.3,50.9,1019.0,225.0,2.2,4.3,229.5,0.15,-2.1,9.4,"16:07:12",1
"20/02/07","16:20",0.0,7.1,51.3,1019.0,206.4,2.1,4.3,165.0,0.12,-2.2,9.4,"16:12:00",1
"20/02/07","16:30",0.0,7.0,51.9,1018.7,217.1,2.0,3.6,239.9,0.09,-2.2,9.2,"16:29:44",1
"20/02/07","16:40",0.0,6.7,51.8,1018.7,222.7,1.7,3.5,217.9,0.06,-2.5,9.2,"16:35:36",1
"20/02/07","16:50",0.0,6.5,52.7,1018.5,226.0,2.1,4.1,227.4,0.05,-2.4,9.0,"16:42:00",1
"20/02/07","17:00",0.0,6.5,52.9,1018.7,221.2,1.5,2.7,199.5,0.05,-2.4,9.1,"16:59:20",1
"20/02/07","17:10",0.0,6.5,52.7,1018.5,206.9,1.5,2.5,126.4,0.05,-2.4,8.7,"17:01:28",1
"20/02/07","17:20",0.0,6.3,52.9,1018.2,243.4,1.6,2.7,253.2,0.03,-2.6,8.7,"17:11:52",1
"20/02/07","17:30",0.0,6.2,53.3,1018.7,232.9,1.5,3.3,247.3,0.01,-2.5,8.6,"17:25:44",1
"20/02/07","17:40",0.0,5.9,54.1,1018.2,242.8,1.5,2.6,245.6,0.00,-2.6,8.4,"17:36:00",1
"20/02/07","17:50",0.0,5.7,54.7,1018.2,249.2,1.7,2.5,238.0,0.00,-2.7,8.5,"17:45:44",1
"20/02/07","18:00",0.0,5.5,55.9,1018.2,234.5,1.2,2.5,245.7,0.00,-2.6,8.3,"17:51:12",1
"20/02/07","18:10",0.0,5.3,56.4,1017.8,254.7,1.5,2.1,251.2,0.00,-2.6,8.2,"18:06:02",1
"20/02/07","18:20",0.0,4.9,58.9,1018.0,308.9,2.1,2.6,322.5,0.00,-2.4,8.0,"18:18:00",1
"20/02/07","18:30",0.0,4.3,62.5,1018.0,310.9,2.0,2.4,323.3,0.00,-2.2,8.1,"18:20:32",1
"20/02/07","18:40",0.0,3.8,64.6,1017.8,286.0,1.5,1.9,277.8,0.00,-2.2,7.9,"18:34:16",1
"20/02/07","18:50",0.0,3.4,66.3,1017.3,292.4,1.6,2.2,314.9,0.00,-2.2,7.7,"18:48:00",1
"20/02/07","19:00",0.0,3.2,67.7,1017.8,289.6,1.6,2.2,307.0,0.00,-2.2,7.7,"18:59:12",1
"20/02/07","19:10",0.0,3.1,68.8,1017.5,293.2,1.6,2.7,310.1,0.00,-2.0,7.5,"19:06:16",1
"20/02/07","19:20",0.0,3.0,69.8,1017.3,285.1,1.6,2.4,308.6,0.00,-1.9,7.7,"19:14:24",1
"20/02/07","19:30",0.0,3.0,70.7,1017.5,282.3,2.0,2.8,309.9,0.00,-1.8,7.4,"19:27:20",1
"20/02/07","19:40",0.0,2.8,71.5,1017.5,299.7,2.2,4.2,314.5,0.00,-1.8,7.2,"19:39:12",1
"20/02/07","19:50",0.0,2.8,72.3,1017.5,307.2,2.3,3.4,331.0,0.00,-1.6,7.4,"19:47:20",1
"20/02/07","20:00",0.0,2.7,72.8,1017.5,293.6,1.7,2.4,299.3,0.00,-1.6,7.1,"19:58:32",1
"20/02/07","20:10",0.0,2.6,73.3,1017.3,302.0,2.2,3.4,328.0,0.00,-1.7,6.9,"20:08:48",1
"20/02/07","20:20",0.0,2.7,73.8,1017.3,312.8,2.8,4.0,319.3,0.00,-1.5,7.1,"20:16:32",1
"20/02/07","20:30",0.0,2.7,74.1,1017.3,316.2,2.7,4.0,322.0,0.00,-1.4,7.0,"20:22:24",1
"20/02/07","20:40",0.0,2.5,74.4,1017.1,303.3,2.0,4.0,318.0,0.00,-1.5,6.7,"20:31:12",1
"20/02/07","20:50",0.0,2.4,74.6,1017.1,299.7,1.6,2.0,308.2,0.00,-1.6,6.7,"20:41:20",1
"20/02/07","21:00",0.0,2.2,75.1,1016.8,314.9,2.5,3.1,318.0,0.00,-1.7,6.9,"20:57:36",1
"20/02/07","21:10",0.0,2.0,75.7,1016.8,301.6,1.0,2.4,320.4,0.00,-1.8,6.6,"21:00:40",1
"20/02/07","21:20",0.0,1.8,76.2,1017.1,291.8,1.3,1.7,285.2,0.00,-1.9,6.8,"21:19:12",1
"20/02/07","21:30",0.0,1.7,77.0,1016.8,311.4,2.3,2.9,320.5,0.00,-1.9,6.7,"21:26:24",1
"20/02/07","21:40",0.0,1.8,77.7,1016.6,314.0,2.6,3.5,314.0,0.00,-1.6,6.7,"21:33:52",1
"20/02/07","21:50",0.0,1.7,78.1,1016.6,299.6,2.1,3.7,332.7,0.00,-1.7,6.7,"21:40:16",1
"20/02/07","22:00",0.0,1.6,78.6,1016.6,287.2,1.6,2.7,302.1,0.00,-1.7,6.4,"21:53:36",1
"20/02/07","22:10",0.0,1.7,79.0,1016.6,283.7,1.7,2.0,300.1,0.00,-1.5,6.4,"22:09:28",1
"20/02/07","22:20",0.0,1.7,79.4,1016.6,295.3,1.8,2.8,306.8,0.00,-1.4,6.4,"22:18:00",1
"20/02/07","22:30",0.0,1.8,79.6,1016.6,315.9,2.5,3.3,319.8,0.00,-1.3,6.1,"22:22:32",1
"20/02/07","22:40",0.0,1.6,79.8,1016.8,303.9,1.7,2.5,319.6,0.00,-1.5,6.3,"22:30:16",1
"20/02/07","22:50",0.0,1.5,80.2,1016.1,291.5,1.7,2.1,314.6,0.00,-1.5,6.3,"22:49:44",1
"20/02/07","23:00",0.0,1.7,80.5,1015.9,311.7,2.1,2.8,313.3,0.00,-1.3,6.2,"22:52:40",1
"20/02/07","23:10",0.0,1.7,80.8,1015.9,321.3,1.7,2.6,323.5,0.00,-1.2,6.2,"23:00:48",1
"20/02/07","23:20",0.0,1.6,81.1,1016.1,312.9,2.1,2.9,324.1,0.00,-1.2,6.2,"23:15:44",1
"20/02/07","23:30",0.0,1.6,81.6,1015.9,288.0,2.1,2.6,322.1,0.00,-1.2,6.2,"23:20:08",1
"20/02/07","23:40",0.0,1.9,81.9,1015.6,297.4,1.7,2.6,321.0,0.00,-0.8,6.2,"23:30:32",1
"20/02/07","23:50",0.0,2.0,82.2,1016.1,295.3,1.6,2.4,314.2,0.00,-0.7,6.2,"23:48:40",1
"20/02/07","24:00",0.0,2.0,82.4,1015.6,310.3,2.0,2.9,322.1,0.00,-0.6,6.3,"23:59:28",1
